Location: *
(47.6569°N, 7.4256°E)
Time: 20:02:46
(UTC+00:00)

N. Korean satellite - Visible Passes

Search period start: 27 February 2021 00:00
Search period end: 09 March 2021 00:00
Orbit: 451 x 503 km, 97.2° (Epoch: 27 February)

Date Brightness Start Highest point End Pass type
(mag) Time Alt. Az. Time Alt. Az. Time Alt. Az.
27 Feb 9.5 04:06:14 10° NE 04:08:39 17° E 04:11:03 10° SE visible
27 Feb 7.1 05:38:52 10° N 05:42:04 34° WNW 05:45:17 10° SW visible
28 Feb 6.4 05:11:55 10° N 05:15:25 74° WNW 05:18:56 10° SSW visible
01 Mar 7.5 04:45:14 10° NNE 04:48:40 50° E 04:52:07 10° S visible
02 Mar 9.0 04:18:53 10° NE 04:21:49 24° E 04:24:46 10° SSE visible
03 Mar 9.9 03:53:17 10° ENE 03:54:52 12° E 03:56:28 10° ESE visible
03 Mar 6.7 05:25:02 10° N 05:28:28 50° WNW 05:31:55 10° SSW visible
04 Mar 6.7 04:58:12 10° NNE 05:01:44 75° ESE 05:05:19 10° S visible
05 Mar 8.3 04:31:38 10° NNE 04:34:56 34° E 04:38:14 10° SSE visible
06 Mar 9.6 04:05:32 10° NE 04:08:01 18° E 04:10:30 10° SE visible
07 Mar 6.5 05:11:11 10° N 05:14:45 75° WNW 05:18:21 10° SSW visible
08 Mar 7.5 04:44:28 10° NNE 04:47:58 50° E 04:51:29 10° S visible
